Index of /20260506/WXO-DD/model_gdps/15km/12/078
Name Last modified Size Description
Parent Directory -
20260506T12Z_MSC_GDPS_AbsoluteVorticity_IsbL-0200_LatLon0.15_PT078H.grib2 2026-05-06 18:44 1.5M
20260506T12Z_MSC_GDPS_AbsoluteVorticity_IsbL-0250_LatLon0.15_PT078H.grib2 2026-05-06 18:44 1.3M
20260506T12Z_MSC_GDPS_AbsoluteVorticity_IsbL-0500_LatLon0.15_PT078H.grib2 2026-05-06 18:44 1.2M
20260506T12Z_MSC_GDPS_AbsoluteVorticity_IsbL-0700_LatLon0.15_PT078H.grib2 2026-05-06 18:44 1.3M
20260506T12Z_MSC_GDPS_AbsoluteVorticity_IsbL-0850_LatLon0.15_PT078H.grib2 2026-05-06 18:44 1.6M
20260506T12Z_MSC_GDPS_AirTemp-Max_AGL-2m_LatLon0.15_PT078H.grib2 2026-05-06 18:44 738K
20260506T12Z_MSC_GDPS_AirTemp-Min_AGL-2m_LatLon0.15_PT078H.grib2 2026-05-06 18:44 786K
20260506T12Z_MSC_GDPS_AirTemp_AGL-120m_LatLon0.15_PT078H.grib2 2026-05-06 18:44 903K
20260506T12Z_MSC_GDPS_AirTemp_AGL-2m_LatLon0.15_PT078H.grib2 2026-05-06 18:44 1.0M
20260506T12Z_MSC_GDPS_AirTemp_AGL-40m_LatLon0.15_PT078H.grib2 2026-05-06 18:44 806K
20260506T12Z_MSC_GDPS_AirTemp_AGL-80m_LatLon0.15_PT078H.grib2 2026-05-06 18:44 913K
20260506T12Z_MSC_GDPS_AirTemp_IsbL-0001_LatLon0.15_PT078H.grib2 2026-05-06 18:44 670K
20260506T12Z_MSC_GDPS_AirTemp_IsbL-0005_LatLon0.15_PT078H.grib2 2026-05-06 18:44 537K
20260506T12Z_MSC_GDPS_AirTemp_IsbL-0010_LatLon0.15_PT078H.grib2 2026-05-06 18:44 703K
20260506T12Z_MSC_GDPS_AirTemp_IsbL-0020_LatLon0.15_PT078H.grib2 2026-05-06 18:44 790K
20260506T12Z_MSC_GDPS_AirTemp_IsbL-0030_LatLon0.15_PT078H.grib2 2026-05-06 18:44 844K
20260506T12Z_MSC_GDPS_AirTemp_IsbL-0050_LatLon0.15_PT078H.grib2 2026-05-06 18:44 890K
20260506T12Z_MSC_GDPS_AirTemp_IsbL-0100_LatLon0.15_PT078H.grib2 2026-05-06 18:44 969K
20260506T12Z_MSC_GDPS_AirTemp_IsbL-0150_LatLon0.15_PT078H.grib2 2026-05-06 18:44 1.0M
20260506T12Z_MSC_GDPS_AirTemp_IsbL-0175_LatLon0.15_PT078H.grib2 2026-05-06 18:44 965K
20260506T12Z_MSC_GDPS_AirTemp_IsbL-0200_LatLon0.15_PT078H.grib2 2026-05-06 18:44 1.0M
20260506T12Z_MSC_GDPS_AirTemp_IsbL-0225_LatLon0.15_PT078H.grib2 2026-05-06 18:44 971K
20260506T12Z_MSC_GDPS_AirTemp_IsbL-0250_LatLon0.15_PT078H.grib2 2026-05-06 18:44 1.0M
20260506T12Z_MSC_GDPS_AirTemp_IsbL-0275_LatLon0.15_PT078H.grib2 2026-05-06 18:44 1.0M
20260506T12Z_MSC_GDPS_AirTemp_IsbL-0300_LatLon0.15_PT078H.grib2 2026-05-06 18:44 1.0M
20260506T12Z_MSC_GDPS_AirTemp_IsbL-0350_LatLon0.15_PT078H.grib2 2026-05-06 18:44 937K
20260506T12Z_MSC_GDPS_AirTemp_IsbL-0400_LatLon0.15_PT078H.grib2 2026-05-06 18:44 950K
20260506T12Z_MSC_GDPS_AirTemp_IsbL-0450_LatLon0.15_PT078H.grib2 2026-05-06 18:44 1.0M
20260506T12Z_MSC_GDPS_AirTemp_IsbL-0500_LatLon0.15_PT078H.grib2 2026-05-06 18:44 777K
20260506T12Z_MSC_GDPS_AirTemp_IsbL-0550_LatLon0.15_PT078H.grib2 2026-05-06 18:44 810K
20260506T12Z_MSC_GDPS_AirTemp_IsbL-0600_LatLon0.15_PT078H.grib2 2026-05-06 18:44 900K
20260506T12Z_MSC_GDPS_AirTemp_IsbL-0650_LatLon0.15_PT078H.grib2 2026-05-06 18:44 925K
20260506T12Z_MSC_GDPS_AirTemp_IsbL-0700_LatLon0.15_PT078H.grib2 2026-05-06 18:44 960K
20260506T12Z_MSC_GDPS_AirTemp_IsbL-0750_LatLon0.15_PT078H.grib2 2026-05-06 18:44 1.0M
20260506T12Z_MSC_GDPS_AirTemp_IsbL-0800_LatLon0.15_PT078H.grib2 2026-05-06 18:44 1.1M
20260506T12Z_MSC_GDPS_AirTemp_IsbL-0850_LatLon0.15_PT078H.grib2 2026-05-06 18:44 1.1M
20260506T12Z_MSC_GDPS_AirTemp_IsbL-0875_LatLon0.15_PT078H.grib2 2026-05-06 18:44 1.2M
20260506T12Z_MSC_GDPS_AirTemp_IsbL-0900_LatLon0.15_PT078H.grib2 2026-05-06 18:44 1.1M
20260506T12Z_MSC_GDPS_AirTemp_IsbL-0925_LatLon0.15_PT078H.grib2 2026-05-06 18:44 1.1M
20260506T12Z_MSC_GDPS_AirTemp_IsbL-0950_LatLon0.15_PT078H.grib2 2026-05-06 18:44 1.1M
20260506T12Z_MSC_GDPS_AirTemp_IsbL-0970_LatLon0.15_PT078H.grib2 2026-05-06 18:44 1.1M
20260506T12Z_MSC_GDPS_AirTemp_IsbL-0985_LatLon0.15_PT078H.grib2 2026-05-06 18:44 1.1M
20260506T12Z_MSC_GDPS_AirTemp_IsbL-1000_LatLon0.15_PT078H.grib2 2026-05-06 18:44 1.1M
20260506T12Z_MSC_GDPS_AirTemp_IsbL-1015_LatLon0.15_PT078H.grib2 2026-05-06 18:44 1.1M
20260506T12Z_MSC_GDPS_Albedo_Sfc_LatLon0.15_PT078H.grib2 2026-05-06 18:44 245K
20260506T12Z_MSC_GDPS_CAPE_Sfc_LatLon0.15_PT078H.grib2 2026-05-06 18:44 3.9M
20260506T12Z_MSC_GDPS_CIN_Sfc_LatLon0.15_PT078H.grib2 2026-05-06 18:44 2.8M
20260506T12Z_MSC_GDPS_CloudWater_EAtm_LatLon0.15_PT078H.grib2 2026-05-06 18:44 542K
20260506T12Z_MSC_GDPS_ConvectivePrecip-Accum_Sfc_LatLon0.15_PT078H.grib2 2026-05-06 18:44 3.1M
20260506T12Z_MSC_GDPS_DewPointDepression_AGL-2m_LatLon0.15_PT078H.grib2 2026-05-06 18:44 762K
20260506T12Z_MSC_GDPS_DewPointDepression_IsbL-0010_LatLon0.15_PT078H.grib2 2026-05-06 18:44 93K
20260506T12Z_MSC_GDPS_DewPointDepression_IsbL-0020_LatLon0.15_PT078H.grib2 2026-05-06 18:44 89K
20260506T12Z_MSC_GDPS_DewPointDepression_IsbL-0030_LatLon0.15_PT078H.grib2 2026-05-06 18:44 100K
20260506T12Z_MSC_GDPS_DewPointDepression_IsbL-0050_LatLon0.15_PT078H.grib2 2026-05-06 18:44 385K
20260506T12Z_MSC_GDPS_DewPointDepression_IsbL-0100_LatLon0.15_PT078H.grib2 2026-05-06 18:44 398K
20260506T12Z_MSC_GDPS_DewPointDepression_IsbL-0150_LatLon0.15_PT078H.grib2 2026-05-06 18:44 505K
20260506T12Z_MSC_GDPS_DewPointDepression_IsbL-0175_LatLon0.15_PT078H.grib2 2026-05-06 18:44 607K
20260506T12Z_MSC_GDPS_DewPointDepression_IsbL-0200_LatLon0.15_PT078H.grib2 2026-05-06 18:44 700K
20260506T12Z_MSC_GDPS_DewPointDepression_IsbL-0225_LatLon0.15_PT078H.grib2 2026-05-06 18:44 784K
20260506T12Z_MSC_GDPS_DewPointDepression_IsbL-0250_LatLon0.15_PT078H.grib2 2026-05-06 18:44 884K
20260506T12Z_MSC_GDPS_DewPointDepression_IsbL-0275_LatLon0.15_PT078H.grib2 2026-05-06 18:44 914K
20260506T12Z_MSC_GDPS_DewPointDepression_IsbL-0300_LatLon0.15_PT078H.grib2 2026-05-06 18:44 951K
20260506T12Z_MSC_GDPS_DewPointDepression_IsbL-0350_LatLon0.15_PT078H.grib2 2026-05-06 18:44 967K
20260506T12Z_MSC_GDPS_DewPointDepression_IsbL-0400_LatLon0.15_PT078H.grib2 2026-05-06 18:44 1.0M
20260506T12Z_MSC_GDPS_DewPointDepression_IsbL-0450_LatLon0.15_PT078H.grib2 2026-05-06 18:44 1.0M
20260506T12Z_MSC_GDPS_DewPointDepression_IsbL-0500_LatLon0.15_PT078H.grib2 2026-05-06 18:44 1.0M
20260506T12Z_MSC_GDPS_DewPointDepression_IsbL-0550_LatLon0.15_PT078H.grib2 2026-05-06 18:44 1.0M
20260506T12Z_MSC_GDPS_DewPointDepression_IsbL-0600_LatLon0.15_PT078H.grib2 2026-05-06 18:44 1.0M
20260506T12Z_MSC_GDPS_DewPointDepression_IsbL-0650_LatLon0.15_PT078H.grib2 2026-05-06 18:44 1.1M
20260506T12Z_MSC_GDPS_DewPointDepression_IsbL-0700_LatLon0.15_PT078H.grib2 2026-05-06 18:44 1.1M
20260506T12Z_MSC_GDPS_DewPointDepression_IsbL-0750_LatLon0.15_PT078H.grib2 2026-05-06 18:44 1.1M
20260506T12Z_MSC_GDPS_DewPointDepression_IsbL-0800_LatLon0.15_PT078H.grib2 2026-05-06 18:44 1.2M
20260506T12Z_MSC_GDPS_DewPointDepression_IsbL-0850_LatLon0.15_PT078H.grib2 2026-05-06 18:44 1.2M
20260506T12Z_MSC_GDPS_DewPointDepression_IsbL-0875_LatLon0.15_PT078H.grib2 2026-05-06 18:44 1.1M
20260506T12Z_MSC_GDPS_DewPointDepression_IsbL-0900_LatLon0.15_PT078H.grib2 2026-05-06 18:44 1.1M
20260506T12Z_MSC_GDPS_DewPointDepression_IsbL-0925_LatLon0.15_PT078H.grib2 2026-05-06 18:44 1.0M
20260506T12Z_MSC_GDPS_DewPointDepression_IsbL-0950_LatLon0.15_PT078H.grib2 2026-05-06 18:44 1.0M
20260506T12Z_MSC_GDPS_DewPointDepression_IsbL-0970_LatLon0.15_PT078H.grib2 2026-05-06 18:44 1.0M
20260506T12Z_MSC_GDPS_DewPointDepression_IsbL-0985_LatLon0.15_PT078H.grib2 2026-05-06 18:44 1.0M
20260506T12Z_MSC_GDPS_DewPointDepression_IsbL-1000_LatLon0.15_PT078H.grib2 2026-05-06 18:44 960K
20260506T12Z_MSC_GDPS_DewPointDepression_IsbL-1015_LatLon0.15_PT078H.grib2 2026-05-06 18:44 905K
20260506T12Z_MSC_GDPS_DewPoint_AGL-2m_LatLon0.15_PT078H.grib2 2026-05-06 18:44 608K
20260506T12Z_MSC_GDPS_DownwardLongwaveRadiationFlux-Accum_Sfc_LatLon0.15_PT078H.grib2 2026-05-06 18:44 682K
20260506T12Z_MSC_GDPS_DownwardShortwaveRadiationFlux-Accum_NTAtm_LatLon0.15_PT078H.grib2 2026-05-06 18:44 237K
20260506T12Z_MSC_GDPS_DownwardShortwaveRadiationFlux-Accum_Sfc_LatLon0.15_PT078H.grib2 2026-05-06 18:44 888K
20260506T12Z_MSC_GDPS_FreezingRain-Accum12h_Sfc_LatLon0.15_PT078H.grib2 2026-05-06 18:44 100K
20260506T12Z_MSC_GDPS_FreezingRain-Accum1h_Sfc_LatLon0.15_PT078H.grib2 2026-05-06 18:44 38K
20260506T12Z_MSC_GDPS_FreezingRain-Accum24h_Sfc_LatLon0.15_PT078H.grib2 2026-05-06 18:44 143K
20260506T12Z_MSC_GDPS_FreezingRain-Accum3h_Sfc_LatLon0.15_PT078H.grib2 2026-05-06 18:44 39K
20260506T12Z_MSC_GDPS_FreezingRain-Accum6h_Sfc_LatLon0.15_PT078H.grib2 2026-05-06 18:44 67K
20260506T12Z_MSC_GDPS_FreezingRain-Accum_Sfc_LatLon0.15_PT078H.grib2 2026-05-06 18:44 278K
20260506T12Z_MSC_GDPS_GeopotentialHeight_IsbL-0001_LatLon0.15_PT078H.grib2 2026-05-06 18:44 450K
20260506T12Z_MSC_GDPS_GeopotentialHeight_IsbL-0005_LatLon0.15_PT078H.grib2 2026-05-06 18:44 497K
20260506T12Z_MSC_GDPS_GeopotentialHeight_IsbL-0010_LatLon0.15_PT078H.grib2 2026-05-06 18:44 478K
20260506T12Z_MSC_GDPS_GeopotentialHeight_IsbL-0020_LatLon0.15_PT078H.grib2 2026-05-06 18:44 416K
20260506T12Z_MSC_GDPS_GeopotentialHeight_IsbL-0030_LatLon0.15_PT078H.grib2 2026-05-06 18:44 422K
20260506T12Z_MSC_GDPS_GeopotentialHeight_IsbL-0050_LatLon0.15_PT078H.grib2 2026-05-06 18:44 579K
20260506T12Z_MSC_GDPS_GeopotentialHeight_IsbL-0100_LatLon0.15_PT078H.grib2 2026-05-06 18:44 618K
20260506T12Z_MSC_GDPS_GeopotentialHeight_IsbL-0150_LatLon0.15_PT078H.grib2 2026-05-06 18:44 637K
20260506T12Z_MSC_GDPS_GeopotentialHeight_IsbL-0175_LatLon0.15_PT078H.grib2 2026-05-06 18:44 639K
20260506T12Z_MSC_GDPS_GeopotentialHeight_IsbL-0200_LatLon0.15_PT078H.grib2 2026-05-06 18:44 643K
20260506T12Z_MSC_GDPS_GeopotentialHeight_IsbL-0225_LatLon0.15_PT078H.grib2 2026-05-06 18:44 644K
20260506T12Z_MSC_GDPS_GeopotentialHeight_IsbL-0250_LatLon0.15_PT078H.grib2 2026-05-06 18:44 642K
20260506T12Z_MSC_GDPS_GeopotentialHeight_IsbL-0275_LatLon0.15_PT078H.grib2 2026-05-06 18:44 645K
20260506T12Z_MSC_GDPS_GeopotentialHeight_IsbL-0300_LatLon0.15_PT078H.grib2 2026-05-06 18:44 638K
20260506T12Z_MSC_GDPS_GeopotentialHeight_IsbL-0350_LatLon0.15_PT078H.grib2 2026-05-06 18:44 634K
20260506T12Z_MSC_GDPS_GeopotentialHeight_IsbL-0400_LatLon0.15_PT078H.grib2 2026-05-06 18:44 627K
20260506T12Z_MSC_GDPS_GeopotentialHeight_IsbL-0450_LatLon0.15_PT078H.grib2 2026-05-06 18:44 617K
20260506T12Z_MSC_GDPS_GeopotentialHeight_IsbL-0500_LatLon0.15_PT078H.grib2 2026-05-06 18:44 539K
20260506T12Z_MSC_GDPS_GeopotentialHeight_IsbL-0550_LatLon0.15_PT078H.grib2 2026-05-06 18:44 534K
20260506T12Z_MSC_GDPS_GeopotentialHeight_IsbL-0600_LatLon0.15_PT078H.grib2 2026-05-06 18:44 530K
20260506T12Z_MSC_GDPS_GeopotentialHeight_IsbL-0650_LatLon0.15_PT078H.grib2 2026-05-06 18:44 527K
20260506T12Z_MSC_GDPS_GeopotentialHeight_IsbL-0700_LatLon0.15_PT078H.grib2 2026-05-06 18:44 700K
20260506T12Z_MSC_GDPS_GeopotentialHeight_IsbL-0750_LatLon0.15_PT078H.grib2 2026-05-06 18:44 699K
20260506T12Z_MSC_GDPS_GeopotentialHeight_IsbL-0800_LatLon0.15_PT078H.grib2 2026-05-06 18:44 714K
20260506T12Z_MSC_GDPS_GeopotentialHeight_IsbL-0850_LatLon0.15_PT078H.grib2 2026-05-06 18:44 719K
20260506T12Z_MSC_GDPS_GeopotentialHeight_IsbL-0875_LatLon0.15_PT078H.grib2 2026-05-06 18:44 724K
20260506T12Z_MSC_GDPS_GeopotentialHeight_IsbL-0900_LatLon0.15_PT078H.grib2 2026-05-06 18:44 733K
20260506T12Z_MSC_GDPS_GeopotentialHeight_IsbL-0925_LatLon0.15_PT078H.grib2 2026-05-06 18:44 741K
20260506T12Z_MSC_GDPS_GeopotentialHeight_IsbL-0950_LatLon0.15_PT078H.grib2 2026-05-06 18:44 745K
20260506T12Z_MSC_GDPS_GeopotentialHeight_IsbL-0970_LatLon0.15_PT078H.grib2 2026-05-06 18:44 759K
20260506T12Z_MSC_GDPS_GeopotentialHeight_IsbL-0985_LatLon0.15_PT078H.grib2 2026-05-06 18:44 773K
20260506T12Z_MSC_GDPS_GeopotentialHeight_IsbL-1000_LatLon0.15_PT078H.grib2 2026-05-06 18:44 794K
20260506T12Z_MSC_GDPS_GeopotentialHeight_IsbL-1015_LatLon0.15_PT078H.grib2 2026-05-06 18:44 817K
20260506T12Z_MSC_GDPS_Humidex_Sfc_LatLon0.15_PT078H.grib2 2026-05-06 18:44 5.3M
20260506T12Z_MSC_GDPS_IcePellets-Accum12h_Sfc_LatLon0.15_PT078H.grib2 2026-05-06 18:44 43K
20260506T12Z_MSC_GDPS_IcePellets-Accum1h_Sfc_LatLon0.15_PT078H.grib2 2026-05-06 18:44 19K
20260506T12Z_MSC_GDPS_IcePellets-Accum24h_Sfc_LatLon0.15_PT078H.grib2 2026-05-06 18:44 56K
20260506T12Z_MSC_GDPS_IcePellets-Accum3h_Sfc_LatLon0.15_PT078H.grib2 2026-05-06 18:44 21K
20260506T12Z_MSC_GDPS_IcePellets-Accum6h_Sfc_LatLon0.15_PT078H.grib2 2026-05-06 18:44 35K
20260506T12Z_MSC_GDPS_IcePellets-Accum_Sfc_LatLon0.15_PT078H.grib2 2026-05-06 18:44 96K
20260506T12Z_MSC_GDPS_KIndex_Sfc_LatLon0.15_PT078H.grib2 2026-05-06 18:44 6.5M
20260506T12Z_MSC_GDPS_LatentHeatNetFlux_Sfc_LatLon0.15_PT078H.grib2 2026-05-06 18:44 537K
20260506T12Z_MSC_GDPS_LiftedIndex-MU-VT_IsbL-0500_LatLon0.15_PT078H.grib2 2026-05-06 18:44 5.4M
20260506T12Z_MSC_GDPS_NetLongwaveRadiationFlux-Accum_Sfc_LatLon0.15_PT078H.grib2 2026-05-06 18:44 1.0M
20260506T12Z_MSC_GDPS_NetShortwaveRadiationFlux-Accum_Sfc_LatLon0.15_PT078H.grib2 2026-05-06 18:44 1.1M
20260506T12Z_MSC_GDPS_O3MixingRatio_Sfc_LatLon0.15_PT078H.grib2 2026-05-06 18:20 1.9M
20260506T12Z_MSC_GDPS_O3_EAtm_LatLon0.15_PT078H.grib2 2026-05-06 18:20 2.5M
20260506T12Z_MSC_GDPS_PlanetaryBoundaryLayerHeight_Sfc_LatLon0.15_PT078H.grib2 2026-05-06 18:44 2.4M
20260506T12Z_MSC_GDPS_Precip-Accum12h_Sfc_LatLon0.15_PT078H.grib2 2026-05-06 18:44 4.1M
20260506T12Z_MSC_GDPS_Precip-Accum1h_Sfc_LatLon0.15_PT078H.grib2 2026-05-06 18:44 3.3M
20260506T12Z_MSC_GDPS_Precip-Accum24h_Sfc_LatLon0.15_PT078H.grib2 2026-05-06 18:44 4.3M
20260506T12Z_MSC_GDPS_Precip-Accum3h_Sfc_LatLon0.15_PT078H.grib2 2026-05-06 18:44 3.6M
20260506T12Z_MSC_GDPS_Precip-Accum6h_Sfc_LatLon0.15_PT078H.grib2 2026-05-06 18:44 3.9M
20260506T12Z_MSC_GDPS_Precip-Accum_Sfc_LatLon0.15_PT078H.grib2 2026-05-06 18:44 4.6M
20260506T12Z_MSC_GDPS_PrecipRate_Sfc_LatLon0.15_PT078H.grib2 2026-05-06 18:44 3.0M
20260506T12Z_MSC_GDPS_PrecipType-Instant_Sfc_LatLon0.15_PT078H.grib2 2026-05-06 18:44 1.6M
20260506T12Z_MSC_GDPS_Pressure_MSL_LatLon0.15_PT078H.grib2 2026-05-06 18:44 832K
20260506T12Z_MSC_GDPS_Pressure_PVU-1.5_LatLon0.15_PT078H.grib2 2026-05-06 18:44 5.8M
20260506T12Z_MSC_GDPS_Pressure_PVU-1_LatLon0.15_PT078H.grib2 2026-05-06 18:44 6.0M
20260506T12Z_MSC_GDPS_Pressure_PVU-2_LatLon0.15_PT078H.grib2 2026-05-06 18:44 5.6M
20260506T12Z_MSC_GDPS_Pressure_Sfc_LatLon0.15_PT078H.grib2 2026-05-06 18:44 1.1M
20260506T12Z_MSC_GDPS_RadiativeTemp_Sfc_LatLon0.15_PT078H.grib2 2026-05-06 18:44 656K
20260506T12Z_MSC_GDPS_Rain-Accum12h_Sfc_LatLon0.15_PT078H.grib2 2026-05-06 18:44 2.7M
20260506T12Z_MSC_GDPS_Rain-Accum1h_Sfc_LatLon0.15_PT078H.grib2 2026-05-06 18:44 1.6M
20260506T12Z_MSC_GDPS_Rain-Accum24h_Sfc_LatLon0.15_PT078H.grib2 2026-05-06 18:44 3.0M
20260506T12Z_MSC_GDPS_Rain-Accum3h_Sfc_LatLon0.15_PT078H.grib2 2026-05-06 18:44 1.7M
20260506T12Z_MSC_GDPS_Rain-Accum6h_Sfc_LatLon0.15_PT078H.grib2 2026-05-06 18:44 2.5M
20260506T12Z_MSC_GDPS_Rain-Accum_Sfc_LatLon0.15_PT078H.grib2 2026-05-06 18:44 3.6M
20260506T12Z_MSC_GDPS_RelativeHumidity_AGL-2m_LatLon0.15_PT078H.grib2 2026-05-06 18:44 1.0M
20260506T12Z_MSC_GDPS_RelativeHumidity_IsbL-0010_LatLon0.15_PT078H.grib2 2026-05-06 18:44 159K
20260506T12Z_MSC_GDPS_RelativeHumidity_IsbL-0020_LatLon0.15_PT078H.grib2 2026-05-06 18:44 171K
20260506T12Z_MSC_GDPS_RelativeHumidity_IsbL-0030_LatLon0.15_PT078H.grib2 2026-05-06 18:44 194K
20260506T12Z_MSC_GDPS_RelativeHumidity_IsbL-0050_LatLon0.15_PT078H.grib2 2026-05-06 18:44 343K
20260506T12Z_MSC_GDPS_RelativeHumidity_IsbL-0100_LatLon0.15_PT078H.grib2 2026-05-06 18:44 511K
20260506T12Z_MSC_GDPS_RelativeHumidity_IsbL-0150_LatLon0.15_PT078H.grib2 2026-05-06 18:44 688K
20260506T12Z_MSC_GDPS_RelativeHumidity_IsbL-0175_LatLon0.15_PT078H.grib2 2026-05-06 18:44 812K
20260506T12Z_MSC_GDPS_RelativeHumidity_IsbL-0200_LatLon0.15_PT078H.grib2 2026-05-06 18:44 719K
20260506T12Z_MSC_GDPS_RelativeHumidity_IsbL-0225_LatLon0.15_PT078H.grib2 2026-05-06 18:44 797K
20260506T12Z_MSC_GDPS_RelativeHumidity_IsbL-0250_LatLon0.15_PT078H.grib2 2026-05-06 18:44 871K
20260506T12Z_MSC_GDPS_RelativeHumidity_IsbL-0275_LatLon0.15_PT078H.grib2 2026-05-06 18:44 895K
20260506T12Z_MSC_GDPS_RelativeHumidity_IsbL-0300_LatLon0.15_PT078H.grib2 2026-05-06 18:44 934K
20260506T12Z_MSC_GDPS_RelativeHumidity_IsbL-0350_LatLon0.15_PT078H.grib2 2026-05-06 18:44 947K
20260506T12Z_MSC_GDPS_RelativeHumidity_IsbL-0400_LatLon0.15_PT078H.grib2 2026-05-06 18:44 966K
20260506T12Z_MSC_GDPS_RelativeHumidity_IsbL-0450_LatLon0.15_PT078H.grib2 2026-05-06 18:44 1.0M
20260506T12Z_MSC_GDPS_RelativeHumidity_IsbL-0500_LatLon0.15_PT078H.grib2 2026-05-06 18:44 1.0M
20260506T12Z_MSC_GDPS_RelativeHumidity_IsbL-0550_LatLon0.15_PT078H.grib2 2026-05-06 18:44 1.1M
20260506T12Z_MSC_GDPS_RelativeHumidity_IsbL-0600_LatLon0.15_PT078H.grib2 2026-05-06 18:44 1.1M
20260506T12Z_MSC_GDPS_RelativeHumidity_IsbL-0650_LatLon0.15_PT078H.grib2 2026-05-06 18:44 1.1M
20260506T12Z_MSC_GDPS_RelativeHumidity_IsbL-0700_LatLon0.15_PT078H.grib2 2026-05-06 18:44 1.1M
20260506T12Z_MSC_GDPS_RelativeHumidity_IsbL-0750_LatLon0.15_PT078H.grib2 2026-05-06 18:44 1.2M
20260506T12Z_MSC_GDPS_RelativeHumidity_IsbL-0800_LatLon0.15_PT078H.grib2 2026-05-06 18:44 1.2M
20260506T12Z_MSC_GDPS_RelativeHumidity_IsbL-0850_LatLon0.15_PT078H.grib2 2026-05-06 18:44 1.3M
20260506T12Z_MSC_GDPS_RelativeHumidity_IsbL-0875_LatLon0.15_PT078H.grib2 2026-05-06 18:44 1.3M
20260506T12Z_MSC_GDPS_RelativeHumidity_IsbL-0900_LatLon0.15_PT078H.grib2 2026-05-06 18:44 1.2M
20260506T12Z_MSC_GDPS_RelativeHumidity_IsbL-0925_LatLon0.15_PT078H.grib2 2026-05-06 18:44 1.2M
20260506T12Z_MSC_GDPS_RelativeHumidity_IsbL-0950_LatLon0.15_PT078H.grib2 2026-05-06 18:44 1.2M
20260506T12Z_MSC_GDPS_RelativeHumidity_IsbL-0970_LatLon0.15_PT078H.grib2 2026-05-06 18:44 1.2M
20260506T12Z_MSC_GDPS_RelativeHumidity_IsbL-0985_LatLon0.15_PT078H.grib2 2026-05-06 18:44 1.1M
20260506T12Z_MSC_GDPS_RelativeHumidity_IsbL-1000_LatLon0.15_PT078H.grib2 2026-05-06 18:44 1.1M
20260506T12Z_MSC_GDPS_RelativeHumidity_IsbL-1015_LatLon0.15_PT078H.grib2 2026-05-06 18:44 1.0M
20260506T12Z_MSC_GDPS_RelativeVorticity_IsbL-0200_LatLon0.15_PT078H.grib2 2026-05-06 18:44 1.5M
20260506T12Z_MSC_GDPS_RelativeVorticity_IsbL-0250_LatLon0.15_PT078H.grib2 2026-05-06 18:44 1.3M
20260506T12Z_MSC_GDPS_RelativeVorticity_IsbL-0500_LatLon0.15_PT078H.grib2 2026-05-06 18:44 1.2M
20260506T12Z_MSC_GDPS_RelativeVorticity_IsbL-0700_LatLon0.15_PT078H.grib2 2026-05-06 18:44 1.3M
20260506T12Z_MSC_GDPS_RelativeVorticity_IsbL-0850_LatLon0.15_PT078H.grib2 2026-05-06 18:44 1.6M
20260506T12Z_MSC_GDPS_Runoff-Accum_Sfc_LatLon0.15_PT078H.grib2 2026-05-06 18:44 115K
20260506T12Z_MSC_GDPS_SensibleHeatNetFlux_Sfc_LatLon0.15_PT078H.grib2 2026-05-06 18:44 471K
20260506T12Z_MSC_GDPS_ShowalterIndex_IsbL-0500_LatLon0.15_PT078H.grib2 2026-05-06 18:44 6.2M
20260506T12Z_MSC_GDPS_Snow-Accum12h_Sfc_LatLon0.15_PT078H.grib2 2026-05-06 18:44 1.5M
20260506T12Z_MSC_GDPS_Snow-Accum1h_Sfc_LatLon0.15_PT078H.grib2 2026-05-06 18:44 1.1M
20260506T12Z_MSC_GDPS_Snow-Accum24h_Sfc_LatLon0.15_PT078H.grib2 2026-05-06 18:44 1.5M
20260506T12Z_MSC_GDPS_Snow-Accum3h_Sfc_LatLon0.15_PT078H.grib2 2026-05-06 18:44 1.1M
20260506T12Z_MSC_GDPS_Snow-Accum6h_Sfc_LatLon0.15_PT078H.grib2 2026-05-06 18:44 1.4M
20260506T12Z_MSC_GDPS_Snow-Accum_Sfc_LatLon0.15_PT078H.grib2 2026-05-06 18:44 1.9M
20260506T12Z_MSC_GDPS_SnowDensity_Sfc_LatLon0.15_PT078H.grib2 2026-05-06 18:44 257K
20260506T12Z_MSC_GDPS_SnowDepth_Sfc_LatLon0.15_PT078H.grib2 2026-05-06 18:44 1.7M
20260506T12Z_MSC_GDPS_SoilTemp_DBS-0to10cm_LatLon0.15_PT078H.grib2 2026-05-06 18:44 510K
20260506T12Z_MSC_GDPS_SoilTemp_Sfc_LatLon0.15_PT078H.grib2 2026-05-06 18:44 576K
20260506T12Z_MSC_GDPS_SoilVolumetricIceContent_Sfc_LatLon0.15_PT078H.grib2 2026-05-06 18:44 180K
20260506T12Z_MSC_GDPS_SoilVolumetricWaterContent_DBS-0to10cm_LatLon0.15_PT078H.grib2 2026-05-06 18:44 598K
20260506T12Z_MSC_GDPS_SoilVolumetricWaterContent_DBS-0to1cm_LatLon0.15_PT078H.grib2 2026-05-06 18:44 652K
20260506T12Z_MSC_GDPS_SpecificHumidity_AGL-120m_LatLon0.15_PT078H.grib2 2026-05-06 18:44 1.1M
20260506T12Z_MSC_GDPS_SpecificHumidity_AGL-2m_LatLon0.15_PT078H.grib2 2026-05-06 18:44 1.2M
20260506T12Z_MSC_GDPS_SpecificHumidity_AGL-40m_LatLon0.15_PT078H.grib2 2026-05-06 18:44 1.1M
20260506T12Z_MSC_GDPS_SpecificHumidity_AGL-80m_LatLon0.15_PT078H.grib2 2026-05-06 18:44 1.1M
20260506T12Z_MSC_GDPS_SpecificHumidity_IsbL-0001_LatLon0.15_PT078H.grib2 2026-05-06 18:44 1.3M
20260506T12Z_MSC_GDPS_SpecificHumidity_IsbL-0005_LatLon0.15_PT078H.grib2 2026-05-06 18:44 1.2M
20260506T12Z_MSC_GDPS_SpecificHumidity_IsbL-0010_LatLon0.15_PT078H.grib2 2026-05-06 18:44 1.3M
20260506T12Z_MSC_GDPS_SpecificHumidity_IsbL-0020_LatLon0.15_PT078H.grib2 2026-05-06 18:44 1.3M
20260506T12Z_MSC_GDPS_SpecificHumidity_IsbL-0030_LatLon0.15_PT078H.grib2 2026-05-06 18:44 1.3M
20260506T12Z_MSC_GDPS_SpecificHumidity_IsbL-0050_LatLon0.15_PT078H.grib2 2026-05-06 18:44 1.6M
20260506T12Z_MSC_GDPS_SpecificHumidity_IsbL-0100_LatLon0.15_PT078H.grib2 2026-05-06 18:44 1.6M
20260506T12Z_MSC_GDPS_SpecificHumidity_IsbL-0150_LatLon0.15_PT078H.grib2 2026-05-06 18:44 1.3M
20260506T12Z_MSC_GDPS_SpecificHumidity_IsbL-0175_LatLon0.15_PT078H.grib2 2026-05-06 18:44 1.3M
20260506T12Z_MSC_GDPS_SpecificHumidity_IsbL-0200_LatLon0.15_PT078H.grib2 2026-05-06 18:44 1.3M
20260506T12Z_MSC_GDPS_SpecificHumidity_IsbL-0225_LatLon0.15_PT078H.grib2 2026-05-06 18:44 1.3M
20260506T12Z_MSC_GDPS_SpecificHumidity_IsbL-0250_LatLon0.15_PT078H.grib2 2026-05-06 18:44 1.2M
20260506T12Z_MSC_GDPS_SpecificHumidity_IsbL-0275_LatLon0.15_PT078H.grib2 2026-05-06 18:44 1.4M
20260506T12Z_MSC_GDPS_SpecificHumidity_IsbL-0300_LatLon0.15_PT078H.grib2 2026-05-06 18:44 1.3M
20260506T12Z_MSC_GDPS_SpecificHumidity_IsbL-0350_LatLon0.15_PT078H.grib2 2026-05-06 18:44 1.3M
20260506T12Z_MSC_GDPS_SpecificHumidity_IsbL-0400_LatLon0.15_PT078H.grib2 2026-05-06 18:44 1.5M
20260506T12Z_MSC_GDPS_SpecificHumidity_IsbL-0450_LatLon0.15_PT078H.grib2 2026-05-06 18:44 1.3M
20260506T12Z_MSC_GDPS_SpecificHumidity_IsbL-0500_LatLon0.15_PT078H.grib2 2026-05-06 18:44 1.5M
20260506T12Z_MSC_GDPS_SpecificHumidity_IsbL-0550_LatLon0.15_PT078H.grib2 2026-05-06 18:44 1.6M
20260506T12Z_MSC_GDPS_SpecificHumidity_IsbL-0600_LatLon0.15_PT078H.grib2 2026-05-06 18:44 1.4M
20260506T12Z_MSC_GDPS_SpecificHumidity_IsbL-0650_LatLon0.15_PT078H.grib2 2026-05-06 18:44 1.5M
20260506T12Z_MSC_GDPS_SpecificHumidity_IsbL-0700_LatLon0.15_PT078H.grib2 2026-05-06 18:44 1.6M
20260506T12Z_MSC_GDPS_SpecificHumidity_IsbL-0750_LatLon0.15_PT078H.grib2 2026-05-06 18:44 1.7M
20260506T12Z_MSC_GDPS_SpecificHumidity_IsbL-0800_LatLon0.15_PT078H.grib2 2026-05-06 18:44 1.9M
20260506T12Z_MSC_GDPS_SpecificHumidity_IsbL-0850_LatLon0.15_PT078H.grib2 2026-05-06 18:44 2.0M
20260506T12Z_MSC_GDPS_SpecificHumidity_IsbL-0875_LatLon0.15_PT078H.grib2 2026-05-06 18:44 2.0M
20260506T12Z_MSC_GDPS_SpecificHumidity_IsbL-0900_LatLon0.15_PT078H.grib2 2026-05-06 18:44 1.9M
20260506T12Z_MSC_GDPS_SpecificHumidity_IsbL-0925_LatLon0.15_PT078H.grib2 2026-05-06 18:44 1.6M
20260506T12Z_MSC_GDPS_SpecificHumidity_IsbL-0950_LatLon0.15_PT078H.grib2 2026-05-06 18:44 1.6M
20260506T12Z_MSC_GDPS_SpecificHumidity_IsbL-0970_LatLon0.15_PT078H.grib2 2026-05-06 18:44 1.5M
20260506T12Z_MSC_GDPS_SpecificHumidity_IsbL-0985_LatLon0.15_PT078H.grib2 2026-05-06 18:44 1.5M
20260506T12Z_MSC_GDPS_SpecificHumidity_IsbL-1000_LatLon0.15_PT078H.grib2 2026-05-06 18:44 1.5M
20260506T12Z_MSC_GDPS_SpecificHumidity_IsbL-1015_LatLon0.15_PT078H.grib2 2026-05-06 18:44 1.5M
20260506T12Z_MSC_GDPS_SpecificHumidity_Sfc_LatLon0.15_PT078H.grib2 2026-05-06 18:44 674K
20260506T12Z_MSC_GDPS_Thickness_IsbL-0850to0700_LatLon0.15_PT078H.grib2 2026-05-06 18:44 477K
20260506T12Z_MSC_GDPS_Thickness_IsbL-1000to0500_LatLon0.15_PT078H.grib2 2026-05-06 18:44 382K
20260506T12Z_MSC_GDPS_Thickness_IsbL-1000to0850_LatLon0.15_PT078H.grib2 2026-05-06 18:44 498K
20260506T12Z_MSC_GDPS_TotalCloudCover_Sfc_LatLon0.15_PT078H.grib2 2026-05-06 18:44 820K
20260506T12Z_MSC_GDPS_TotalTotalsIndex_Sfc_LatLon0.15_PT078H.grib2 2026-05-06 18:44 6.2M
20260506T12Z_MSC_GDPS_UVIndex-ClearSky-Max24h_Sfc_LatLon0.15_PT078H.grib2 2026-05-06 18:20 2.2M
20260506T12Z_MSC_GDPS_UVIndex-ClearSky_Sfc_LatLon0.15_PT078H.grib2 2026-05-06 18:20 1.0M
20260506T12Z_MSC_GDPS_UVIndex-Max24h_Sfc_LatLon0.15_PT078H.grib2 2026-05-06 18:20 3.2M
20260506T12Z_MSC_GDPS_UVIndex_Sfc_LatLon0.15_PT078H.grib2 2026-05-06 18:20 1.5M
20260506T12Z_MSC_GDPS_UpwardLongwaveRadiationFlux_NTAtm_LatLon0.15_PT078H.grib2 2026-05-06 18:44 835K
20260506T12Z_MSC_GDPS_VerticalVelocity_IsbL-0200_LatLon0.15_PT078H.grib2 2026-05-06 18:44 1.2M
20260506T12Z_MSC_GDPS_VerticalVelocity_IsbL-0250_LatLon0.15_PT078H.grib2 2026-05-06 18:44 1.1M
20260506T12Z_MSC_GDPS_VerticalVelocity_IsbL-0500_LatLon0.15_PT078H.grib2 2026-05-06 18:44 1.0M
20260506T12Z_MSC_GDPS_VerticalVelocity_IsbL-0600_LatLon0.15_PT078H.grib2 2026-05-06 18:44 1.1M
20260506T12Z_MSC_GDPS_VerticalVelocity_IsbL-0700_LatLon0.15_PT078H.grib2 2026-05-06 18:44 1.2M
20260506T12Z_MSC_GDPS_VerticalVelocity_IsbL-0850_LatLon0.15_PT078H.grib2 2026-05-06 18:44 1.3M
20260506T12Z_MSC_GDPS_WindChill_Sfc_LatLon0.15_PT078H.grib2 2026-05-06 18:44 5.3M
20260506T12Z_MSC_GDPS_WindDir_AGL-10m_LatLon0.15_PT078H.grib2 2026-05-06 18:44 1.3M
20260506T12Z_MSC_GDPS_WindDir_AGL-120m_LatLon0.15_PT078H.grib2 2026-05-06 18:44 1.3M
20260506T12Z_MSC_GDPS_WindDir_AGL-40m_LatLon0.15_PT078H.grib2 2026-05-06 18:44 1.4M
20260506T12Z_MSC_GDPS_WindDir_AGL-80m_LatLon0.15_PT078H.grib2 2026-05-06 18:44 1.3M
20260506T12Z_MSC_GDPS_WindDir_IsbL-0001_LatLon0.15_PT078H.grib2 2026-05-06 18:44 658K
20260506T12Z_MSC_GDPS_WindDir_IsbL-0005_LatLon0.15_PT078H.grib2 2026-05-06 18:44 812K
20260506T12Z_MSC_GDPS_WindDir_IsbL-0010_LatLon0.15_PT078H.grib2 2026-05-06 18:44 852K
20260506T12Z_MSC_GDPS_WindDir_IsbL-0020_LatLon0.15_PT078H.grib2 2026-05-06 18:44 947K
20260506T12Z_MSC_GDPS_WindDir_IsbL-0030_LatLon0.15_PT078H.grib2 2026-05-06 18:44 958K
20260506T12Z_MSC_GDPS_WindDir_IsbL-0050_LatLon0.15_PT078H.grib2 2026-05-06 18:44 947K
20260506T12Z_MSC_GDPS_WindDir_IsbL-0100_LatLon0.15_PT078H.grib2 2026-05-06 18:44 1.0M
20260506T12Z_MSC_GDPS_WindDir_IsbL-0150_LatLon0.15_PT078H.grib2 2026-05-06 18:44 1.0M
20260506T12Z_MSC_GDPS_WindDir_IsbL-0175_LatLon0.15_PT078H.grib2 2026-05-06 18:44 1.0M
20260506T12Z_MSC_GDPS_WindDir_IsbL-0200_LatLon0.15_PT078H.grib2 2026-05-06 18:44 1.1M
20260506T12Z_MSC_GDPS_WindDir_IsbL-0225_LatLon0.15_PT078H.grib2 2026-05-06 18:44 1.1M
20260506T12Z_MSC_GDPS_WindDir_IsbL-0250_LatLon0.15_PT078H.grib2 2026-05-06 18:44 1.1M
20260506T12Z_MSC_GDPS_WindDir_IsbL-0275_LatLon0.15_PT078H.grib2 2026-05-06 18:44 1.2M
20260506T12Z_MSC_GDPS_WindDir_IsbL-0300_LatLon0.15_PT078H.grib2 2026-05-06 18:44 1.2M
20260506T12Z_MSC_GDPS_WindDir_IsbL-0350_LatLon0.15_PT078H.grib2 2026-05-06 18:44 1.2M
20260506T12Z_MSC_GDPS_WindDir_IsbL-0400_LatLon0.15_PT078H.grib2 2026-05-06 18:44 1.3M
20260506T12Z_MSC_GDPS_WindDir_IsbL-0450_LatLon0.15_PT078H.grib2 2026-05-06 18:44 1.3M
20260506T12Z_MSC_GDPS_WindDir_IsbL-0500_LatLon0.15_PT078H.grib2 2026-05-06 18:44 1.4M
20260506T12Z_MSC_GDPS_WindDir_IsbL-0550_LatLon0.15_PT078H.grib2 2026-05-06 18:44 1.4M
20260506T12Z_MSC_GDPS_WindDir_IsbL-0600_LatLon0.15_PT078H.grib2 2026-05-06 18:44 1.4M
20260506T12Z_MSC_GDPS_WindDir_IsbL-0650_LatLon0.15_PT078H.grib2 2026-05-06 18:44 1.5M
20260506T12Z_MSC_GDPS_WindDir_IsbL-0700_LatLon0.15_PT078H.grib2 2026-05-06 18:44 1.6M
20260506T12Z_MSC_GDPS_WindDir_IsbL-0750_LatLon0.15_PT078H.grib2 2026-05-06 18:44 1.7M
20260506T12Z_MSC_GDPS_WindDir_IsbL-0800_LatLon0.15_PT078H.grib2 2026-05-06 18:44 1.8M
20260506T12Z_MSC_GDPS_WindDir_IsbL-0850_LatLon0.15_PT078H.grib2 2026-05-06 18:44 1.9M
20260506T12Z_MSC_GDPS_WindDir_IsbL-0875_LatLon0.15_PT078H.grib2 2026-05-06 18:44 1.9M
20260506T12Z_MSC_GDPS_WindDir_IsbL-0900_LatLon0.15_PT078H.grib2 2026-05-06 18:44 1.9M
20260506T12Z_MSC_GDPS_WindDir_IsbL-0925_LatLon0.15_PT078H.grib2 2026-05-06 18:44 1.9M
20260506T12Z_MSC_GDPS_WindDir_IsbL-0950_LatLon0.15_PT078H.grib2 2026-05-06 18:44 1.9M
20260506T12Z_MSC_GDPS_WindDir_IsbL-0970_LatLon0.15_PT078H.grib2 2026-05-06 18:44 2.0M
20260506T12Z_MSC_GDPS_WindDir_IsbL-0985_LatLon0.15_PT078H.grib2 2026-05-06 18:44 2.0M
20260506T12Z_MSC_GDPS_WindDir_IsbL-1000_LatLon0.15_PT078H.grib2 2026-05-06 18:44 2.0M
20260506T12Z_MSC_GDPS_WindDir_IsbL-1015_LatLon0.15_PT078H.grib2 2026-05-06 18:44 2.0M
20260506T12Z_MSC_GDPS_WindGust-Max_AGL-10m_LatLon0.15_PT078H.grib2 2026-05-06 18:44 2.2M
20260506T12Z_MSC_GDPS_WindGust-Min_AGL-10m_LatLon0.15_PT078H.grib2 2026-05-06 18:44 2.2M
20260506T12Z_MSC_GDPS_WindGust_AGL-10m_LatLon0.15_PT078H.grib2 2026-05-06 18:44 2.2M
20260506T12Z_MSC_GDPS_WindSpeed_AGL-10m_LatLon0.15_PT078H.grib2 2026-05-06 18:44 1.1M
20260506T12Z_MSC_GDPS_WindSpeed_AGL-120m_LatLon0.15_PT078H.grib2 2026-05-06 18:44 1.2M
20260506T12Z_MSC_GDPS_WindSpeed_AGL-40m_LatLon0.15_PT078H.grib2 2026-05-06 18:44 1.2M
20260506T12Z_MSC_GDPS_WindSpeed_AGL-80m_LatLon0.15_PT078H.grib2 2026-05-06 18:44 1.2M
20260506T12Z_MSC_GDPS_WindSpeed_IsbL-0001_LatLon0.15_PT078H.grib2 2026-05-06 18:44 652K
20260506T12Z_MSC_GDPS_WindSpeed_IsbL-0005_LatLon0.15_PT078H.grib2 2026-05-06 18:44 702K
20260506T12Z_MSC_GDPS_WindSpeed_IsbL-0010_LatLon0.15_PT078H.grib2 2026-05-06 18:44 632K
20260506T12Z_MSC_GDPS_WindSpeed_IsbL-0020_LatLon0.15_PT078H.grib2 2026-05-06 18:44 671K
20260506T12Z_MSC_GDPS_WindSpeed_IsbL-0030_LatLon0.15_PT078H.grib2 2026-05-06 18:44 878K
20260506T12Z_MSC_GDPS_WindSpeed_IsbL-0050_LatLon0.15_PT078H.grib2 2026-05-06 18:44 907K
20260506T12Z_MSC_GDPS_WindSpeed_IsbL-0100_LatLon0.15_PT078H.grib2 2026-05-06 18:44 1.1M
20260506T12Z_MSC_GDPS_WindSpeed_IsbL-0150_LatLon0.15_PT078H.grib2 2026-05-06 18:44 947K
20260506T12Z_MSC_GDPS_WindSpeed_IsbL-0175_LatLon0.15_PT078H.grib2 2026-05-06 18:44 1.0M
20260506T12Z_MSC_GDPS_WindSpeed_IsbL-0200_LatLon0.15_PT078H.grib2 2026-05-06 18:44 1.1M
20260506T12Z_MSC_GDPS_WindSpeed_IsbL-0225_LatLon0.15_PT078H.grib2 2026-05-06 18:44 1.1M
20260506T12Z_MSC_GDPS_WindSpeed_IsbL-0250_LatLon0.15_PT078H.grib2 2026-05-06 18:44 1.1M
20260506T12Z_MSC_GDPS_WindSpeed_IsbL-0275_LatLon0.15_PT078H.grib2 2026-05-06 18:44 1.1M
20260506T12Z_MSC_GDPS_WindSpeed_IsbL-0300_LatLon0.15_PT078H.grib2 2026-05-06 18:44 1.1M
20260506T12Z_MSC_GDPS_WindSpeed_IsbL-0350_LatLon0.15_PT078H.grib2 2026-05-06 18:44 1.1M
20260506T12Z_MSC_GDPS_WindSpeed_IsbL-0400_LatLon0.15_PT078H.grib2 2026-05-06 18:44 1.1M
20260506T12Z_MSC_GDPS_WindSpeed_IsbL-0450_LatLon0.15_PT078H.grib2 2026-05-06 18:44 1.1M
20260506T12Z_MSC_GDPS_WindSpeed_IsbL-0500_LatLon0.15_PT078H.grib2 2026-05-06 18:44 1.1M
20260506T12Z_MSC_GDPS_WindSpeed_IsbL-0550_LatLon0.15_PT078H.grib2 2026-05-06 18:44 1.1M
20260506T12Z_MSC_GDPS_WindSpeed_IsbL-0600_LatLon0.15_PT078H.grib2 2026-05-06 18:44 1.1M
20260506T12Z_MSC_GDPS_WindSpeed_IsbL-0650_LatLon0.15_PT078H.grib2 2026-05-06 18:44 1.4M
20260506T12Z_MSC_GDPS_WindSpeed_IsbL-0700_LatLon0.15_PT078H.grib2 2026-05-06 18:44 1.5M
20260506T12Z_MSC_GDPS_WindSpeed_IsbL-0750_LatLon0.15_PT078H.grib2 2026-05-06 18:44 1.6M
20260506T12Z_MSC_GDPS_WindSpeed_IsbL-0800_LatLon0.15_PT078H.grib2 2026-05-06 18:44 1.7M
20260506T12Z_MSC_GDPS_WindSpeed_IsbL-0850_LatLon0.15_PT078H.grib2 2026-05-06 18:44 1.8M
20260506T12Z_MSC_GDPS_WindSpeed_IsbL-0875_LatLon0.15_PT078H.grib2 2026-05-06 18:44 1.8M
20260506T12Z_MSC_GDPS_WindSpeed_IsbL-0900_LatLon0.15_PT078H.grib2 2026-05-06 18:44 1.8M
20260506T12Z_MSC_GDPS_WindSpeed_IsbL-0925_LatLon0.15_PT078H.grib2 2026-05-06 18:44 1.8M
20260506T12Z_MSC_GDPS_WindSpeed_IsbL-0950_LatLon0.15_PT078H.grib2 2026-05-06 18:44 1.9M
20260506T12Z_MSC_GDPS_WindSpeed_IsbL-0970_LatLon0.15_PT078H.grib2 2026-05-06 18:44 1.9M
20260506T12Z_MSC_GDPS_WindSpeed_IsbL-0985_LatLon0.15_PT078H.grib2 2026-05-06 18:44 1.9M
20260506T12Z_MSC_GDPS_WindSpeed_IsbL-1000_LatLon0.15_PT078H.grib2 2026-05-06 18:44 1.9M
20260506T12Z_MSC_GDPS_WindSpeed_IsbL-1015_LatLon0.15_PT078H.grib2 2026-05-06 18:44 1.8M
20260506T12Z_MSC_GDPS_WindU_AGL-10m_LatLon0.15_PT078H.grib2 2026-05-06 18:44 1.3M
20260506T12Z_MSC_GDPS_WindU_AGL-120m_LatLon0.15_PT078H.grib2 2026-05-06 18:44 1.0M
20260506T12Z_MSC_GDPS_WindU_AGL-40m_LatLon0.15_PT078H.grib2 2026-05-06 18:44 967K
20260506T12Z_MSC_GDPS_WindU_AGL-80m_LatLon0.15_PT078H.grib2 2026-05-06 18:44 1.0M
20260506T12Z_MSC_GDPS_WindU_IsbL-0001_LatLon0.15_PT078H.grib2 2026-05-06 18:44 509K
20260506T12Z_MSC_GDPS_WindU_IsbL-0005_LatLon0.15_PT078H.grib2 2026-05-06 18:44 701K
20260506T12Z_MSC_GDPS_WindU_IsbL-0010_LatLon0.15_PT078H.grib2 2026-05-06 18:44 707K
20260506T12Z_MSC_GDPS_WindU_IsbL-0020_LatLon0.15_PT078H.grib2 2026-05-06 18:44 735K
20260506T12Z_MSC_GDPS_WindU_IsbL-0030_LatLon0.15_PT078H.grib2 2026-05-06 18:44 748K
20260506T12Z_MSC_GDPS_WindU_IsbL-0050_LatLon0.15_PT078H.grib2 2026-05-06 18:44 770K
20260506T12Z_MSC_GDPS_WindU_IsbL-0100_LatLon0.15_PT078H.grib2 2026-05-06 18:44 871K
20260506T12Z_MSC_GDPS_WindU_IsbL-0150_LatLon0.15_PT078H.grib2 2026-05-06 18:44 1.0M
20260506T12Z_MSC_GDPS_WindU_IsbL-0175_LatLon0.15_PT078H.grib2 2026-05-06 18:44 1.0M
20260506T12Z_MSC_GDPS_WindU_IsbL-0200_LatLon0.15_PT078H.grib2 2026-05-06 18:44 1.1M
20260506T12Z_MSC_GDPS_WindU_IsbL-0225_LatLon0.15_PT078H.grib2 2026-05-06 18:44 855K
20260506T12Z_MSC_GDPS_WindU_IsbL-0250_LatLon0.15_PT078H.grib2 2026-05-06 18:44 856K
20260506T12Z_MSC_GDPS_WindU_IsbL-0275_LatLon0.15_PT078H.grib2 2026-05-06 18:44 883K
20260506T12Z_MSC_GDPS_WindU_IsbL-0300_LatLon0.15_PT078H.grib2 2026-05-06 18:44 874K
20260506T12Z_MSC_GDPS_WindU_IsbL-0350_LatLon0.15_PT078H.grib2 2026-05-06 18:44 1.1M
20260506T12Z_MSC_GDPS_WindU_IsbL-0400_LatLon0.15_PT078H.grib2 2026-05-06 18:44 1.1M
20260506T12Z_MSC_GDPS_WindU_IsbL-0450_LatLon0.15_PT078H.grib2 2026-05-06 18:44 1.1M
20260506T12Z_MSC_GDPS_WindU_IsbL-0500_LatLon0.15_PT078H.grib2 2026-05-06 18:44 1.1M
20260506T12Z_MSC_GDPS_WindU_IsbL-0550_LatLon0.15_PT078H.grib2 2026-05-06 18:44 1.1M
20260506T12Z_MSC_GDPS_WindU_IsbL-0600_LatLon0.15_PT078H.grib2 2026-05-06 18:44 1.2M
20260506T12Z_MSC_GDPS_WindU_IsbL-0650_LatLon0.15_PT078H.grib2 2026-05-06 18:44 1.2M
20260506T12Z_MSC_GDPS_WindU_IsbL-0700_LatLon0.15_PT078H.grib2 2026-05-06 18:44 1.2M
20260506T12Z_MSC_GDPS_WindU_IsbL-0750_LatLon0.15_PT078H.grib2 2026-05-06 18:44 1.3M
20260506T12Z_MSC_GDPS_WindU_IsbL-0800_LatLon0.15_PT078H.grib2 2026-05-06 18:44 1.4M
20260506T12Z_MSC_GDPS_WindU_IsbL-0850_LatLon0.15_PT078H.grib2 2026-05-06 18:44 1.4M
20260506T12Z_MSC_GDPS_WindU_IsbL-0875_LatLon0.15_PT078H.grib2 2026-05-06 18:44 1.5M
20260506T12Z_MSC_GDPS_WindU_IsbL-0900_LatLon0.15_PT078H.grib2 2026-05-06 18:44 1.5M
20260506T12Z_MSC_GDPS_WindU_IsbL-0925_LatLon0.15_PT078H.grib2 2026-05-06 18:44 1.5M
20260506T12Z_MSC_GDPS_WindU_IsbL-0950_LatLon0.15_PT078H.grib2 2026-05-06 18:44 1.4M
20260506T12Z_MSC_GDPS_WindU_IsbL-0970_LatLon0.15_PT078H.grib2 2026-05-06 18:44 1.4M
20260506T12Z_MSC_GDPS_WindU_IsbL-0985_LatLon0.15_PT078H.grib2 2026-05-06 18:44 1.4M
20260506T12Z_MSC_GDPS_WindU_IsbL-1000_LatLon0.15_PT078H.grib2 2026-05-06 18:44 1.4M
20260506T12Z_MSC_GDPS_WindU_IsbL-1015_LatLon0.15_PT078H.grib2 2026-05-06 18:44 1.3M
20260506T12Z_MSC_GDPS_WindV_AGL-10m_LatLon0.15_PT078H.grib2 2026-05-06 18:44 1.3M
20260506T12Z_MSC_GDPS_WindV_AGL-120m_LatLon0.15_PT078H.grib2 2026-05-06 18:44 1.0M
20260506T12Z_MSC_GDPS_WindV_AGL-40m_LatLon0.15_PT078H.grib2 2026-05-06 18:44 970K
20260506T12Z_MSC_GDPS_WindV_AGL-80m_LatLon0.15_PT078H.grib2 2026-05-06 18:44 1.0M
20260506T12Z_MSC_GDPS_WindV_IsbL-0001_LatLon0.15_PT078H.grib2 2026-05-06 18:44 690K
20260506T12Z_MSC_GDPS_WindV_IsbL-0005_LatLon0.15_PT078H.grib2 2026-05-06 18:44 775K
20260506T12Z_MSC_GDPS_WindV_IsbL-0010_LatLon0.15_PT078H.grib2 2026-05-06 18:44 800K
20260506T12Z_MSC_GDPS_WindV_IsbL-0020_LatLon0.15_PT078H.grib2 2026-05-06 18:44 937K
20260506T12Z_MSC_GDPS_WindV_IsbL-0030_LatLon0.15_PT078H.grib2 2026-05-06 18:44 946K
20260506T12Z_MSC_GDPS_WindV_IsbL-0050_LatLon0.15_PT078H.grib2 2026-05-06 18:44 904K
20260506T12Z_MSC_GDPS_WindV_IsbL-0100_LatLon0.15_PT078H.grib2 2026-05-06 18:44 858K
20260506T12Z_MSC_GDPS_WindV_IsbL-0150_LatLon0.15_PT078H.grib2 2026-05-06 18:44 1.0M
20260506T12Z_MSC_GDPS_WindV_IsbL-0175_LatLon0.15_PT078H.grib2 2026-05-06 18:44 815K
20260506T12Z_MSC_GDPS_WindV_IsbL-0200_LatLon0.15_PT078H.grib2 2026-05-06 18:44 842K
20260506T12Z_MSC_GDPS_WindV_IsbL-0225_LatLon0.15_PT078H.grib2 2026-05-06 18:44 908K
20260506T12Z_MSC_GDPS_WindV_IsbL-0250_LatLon0.15_PT078H.grib2 2026-05-06 18:44 909K
20260506T12Z_MSC_GDPS_WindV_IsbL-0275_LatLon0.15_PT078H.grib2 2026-05-06 18:44 935K
20260506T12Z_MSC_GDPS_WindV_IsbL-0300_LatLon0.15_PT078H.grib2 2026-05-06 18:44 926K
20260506T12Z_MSC_GDPS_WindV_IsbL-0350_LatLon0.15_PT078H.grib2 2026-05-06 18:44 938K
20260506T12Z_MSC_GDPS_WindV_IsbL-0400_LatLon0.15_PT078H.grib2 2026-05-06 18:44 886K
20260506T12Z_MSC_GDPS_WindV_IsbL-0450_LatLon0.15_PT078H.grib2 2026-05-06 18:44 887K
20260506T12Z_MSC_GDPS_WindV_IsbL-0500_LatLon0.15_PT078H.grib2 2026-05-06 18:44 1.1M
20260506T12Z_MSC_GDPS_WindV_IsbL-0550_LatLon0.15_PT078H.grib2 2026-05-06 18:44 1.1M
20260506T12Z_MSC_GDPS_WindV_IsbL-0600_LatLon0.15_PT078H.grib2 2026-05-06 18:44 1.1M
20260506T12Z_MSC_GDPS_WindV_IsbL-0650_LatLon0.15_PT078H.grib2 2026-05-06 18:44 1.2M
20260506T12Z_MSC_GDPS_WindV_IsbL-0700_LatLon0.15_PT078H.grib2 2026-05-06 18:44 1.2M
20260506T12Z_MSC_GDPS_WindV_IsbL-0750_LatLon0.15_PT078H.grib2 2026-05-06 18:44 1.3M
20260506T12Z_MSC_GDPS_WindV_IsbL-0800_LatLon0.15_PT078H.grib2 2026-05-06 18:44 1.4M
20260506T12Z_MSC_GDPS_WindV_IsbL-0850_LatLon0.15_PT078H.grib2 2026-05-06 18:44 1.4M
20260506T12Z_MSC_GDPS_WindV_IsbL-0875_LatLon0.15_PT078H.grib2 2026-05-06 18:44 1.4M
20260506T12Z_MSC_GDPS_WindV_IsbL-0900_LatLon0.15_PT078H.grib2 2026-05-06 18:44 1.5M
20260506T12Z_MSC_GDPS_WindV_IsbL-0925_LatLon0.15_PT078H.grib2 2026-05-06 18:44 1.5M
20260506T12Z_MSC_GDPS_WindV_IsbL-0950_LatLon0.15_PT078H.grib2 2026-05-06 18:44 1.4M
20260506T12Z_MSC_GDPS_WindV_IsbL-0970_LatLon0.15_PT078H.grib2 2026-05-06 18:44 1.4M
20260506T12Z_MSC_GDPS_WindV_IsbL-0985_LatLon0.15_PT078H.grib2 2026-05-06 18:44 1.4M
20260506T12Z_MSC_GDPS_WindV_IsbL-1000_LatLon0.15_PT078H.grib2 2026-05-06 18:44 1.4M
20260506T12Z_MSC_GDPS_WindV_IsbL-1015_LatLon0.15_PT078H.grib2 2026-05-06 18:44 1.3M